Wind_Speed
20 20 21 21 21 22 22 22 22 22 21 20 19 18 17 16 15 13 13 12 10 9 7 6 6 6 7 8 9 10 11 12 12 12 12 11 11 10 9 9 8 8 8 8 8 9 10 11 11 12 14 14 13 12 10 9 7 6 5 4 3 2 2 1 1 2 2 4 5
19 19 20 21 22 22 23 23 22 22 20 19 17 16 15 14 13 12 10 9 7 6 4 5 6 7 8 9 9 10 11 11 10 10 10 10 9 8 8 8 8 9 10 10 10 10 11 13 13 14 14 13 11 10 8 7 6 5 4 4 3 3 3 3 4 4 5 6 7
19 20 21 23 23 23 23 23 22 21 19 17 15 14 13 12 11 9 8 6 4 3 4 6 6 7 7 8 8 8 9 9 8 8 8 8 8 8 9 9 10 11 12 12 11 11 12 13 14 14 13 12 10 9 8 7 6 5 5 5 5 5 5 6 6 7 8 8 9
20 21 23 24 23 23 23 22 21 19 17 15 14 12 11 9 8 6 5 4 3 4 5 5 6 6 6 7 7 7 7 7 7 7 8 8 9 9 10 11 11 12 12 12 12 12 12 13 13 13 12 11 10 9 8 7 7 6 5 5 5 5 5 6 7 8 8 9 10
21 23 23 23 23 22 21 20 18 17 15 13 11 10 8 6 5 4 4 3 3 3 4 4 5 5 5 6 6 6 6 7 8 8 9 10 10 10 10 11 11 11 12 12 12 12 12 13 12 12 11 10 9 8 7 7 6 5 5 5 5 5 6 6 7 7 8 9 10
22 22 23 22 21 20 19 17 16 14 12 11 9 7 5 4 3 3 2 2 2 3 3 4 4 4 4 5 5 6 7 8 9 10 10 10 9 9 9 10 11 11 12 12 12 12 12 12 12 11 10 9 9 8 7 7 6 6 6 7 7 7 8 8 9 9 10 10 11
21 21 21 20 20 18 17 15 13 11 9 7 6 4 3 3 2 2 1 1 2 2 3 4 4 4 5 6 7 8 9 9 10 10 9 9 9 9 9 10 10 10 11 11 11 11 10 10 10 10 9 8 8 8 8 8 8 8 9 9 10 10 10 11 11 11 12 12 12
20 20 19 19 18 16 15 13 11 8 6 5 4 4 3 3 2 1 0 1 3 4 3 3 5 6 7 8 9 9 9 9 9 9 9 9 9 9 9 10 10 10 10 10 10 9 9 9 9 8 7 7 8 9 9 10 10 11 11 12 13 13 13 13 13 13 13 13 13
19 19 18 18 16 15 13 11 8 7 6 5 4 4 3 2 1 1 2 3 3 3 4 5 7 8 9 9 9 9 9 8 8 8 8 8 8 8 8 9 9 9 9 8 8 7 7 8 8 8 8 8 9 10 11 11 12 13 14 15 15 15 14 14 13 12 12 12 12
18 18 17 16 15 14 12 10 8 7 7 6 5 3 2 2 2 3 3 3 3 5 6 8 9 9 9 9 9 8 7 7 6 6 6 6 6 6 6 6 6 6 6 6 6 6 7 7 8 8 9 10 11 11 12 12 13 15 15 15 15 15 14 12 12 11 11 12 12
18 17 16 15 13 13 12 11 10 8 7 6 4 3 3 4 4 2 0 3 6 8 8 9 10 10 9 9 8 8 7 6 5 5 5 5 5 5 4 4 4 5 5 5 6 7 8 9 10 10 11 11 11 12 12 12 13 13 14 13 13 13 12 12 11 12 12 13 14
18 17 15 14 13 13 12 11 10 8 7 6 5 5 5 5 5 3 2 5 8 9 10 10 10 9 8 8 8 8 7 6 5 4 4 4 4 4 4 4 5 5 6 7 8 9 10 10 11 12 12 12 11 11 11 11 11 11 12 12 11 12 12 13 13 14 14 15 16
17 16 14 14 14 13 12 10 9 8 7 6 6 6 7 7 6 4 3 5 7 9 10 10 9 8 7 7 7 7 6 4 3 3 3 3 4 5 6 6 7 7 7 8 8 9 10 10 11 11 11 11 11 11 11 11 11 11 11 12 13 13 14 15 15 16 16 17 18
17 15 14 14 13 12 11 9 8 7 7 7 7 7 7 7 6 4 4 5 7 9 10 10 9 8 7 6 5 4 4 3 3 4 4 6 7 7 8 8 8 8 8 9 9 9 10 10 10 11 11 11 11 11 11 11 12 12 13 14 15 16 16 16 17 17 18 18 19
16 15 14 13 12 11 10 9 8 8 8 8 8 8 7 7 5 4 4 5 7 9 10 10 9 8 7 6 5 4 5 5 6 6 7 8 8 8 8 8 8 9 9 10 11 11 12 12 12 12 12 13 13 13 13 13 13 14 15 15 16 16 17 17 17 18 18 18 19
16 15 14 12 11 10 9 9 9 9 9 9 9 9 8 7 6 5 5 6 8 9 10 10 9 8 7 7 7 7 8 8 9 9 10 9 9 9 9 9 10 10 11 12 13 13 14 14 14 14 13 13 13 13 13 14 14 15 15 16 16 17 17 18 18 18 18 19 19
17 15 14 12 11 10 9 9 10 10 10 10 10 9 9 8 7 6 5 6 8 10 11 10 9 8 8 8 9 10 10 11 11 11 10 9 9 9 10 10 11 12 12 13 14 14 14 14 14 13 13 13 13 13 14 14 15 15 16 17 17 17 18 18 18 18 18 19 19
17 16 15 13 12 11 11 11 11 12 12 12 11 10 10 9 8 6 5 6 9 10 11 10 9 9 9 9 10 10 10 11 11 10 10 9 9 10 11 12 12 13 13 13 13 13 13 13 12 12 12 13 13 14 14 15 16 16 17 17 17 18 18 18 18 18 19 19 19
19 18 17 15 14 13 13 13 14 14 13 13 12 11 10 9 8 6 6 8 9 10 11 10 10 9 10 10 10 10 10 10 10 10 10 10 11 12 13 13 13 13 13 13 12 12 12 12 12 12 12 13 14 15 15 16 16 17 17 17 18 18 18 19 19 19 19 19 20
20 19 18 17 16 16 16 16 15 15 14 13 12 11 10 8 7 7 8 10 10 11 11 11 11 11 11 11 11 10 10 10 11 11 11 12 13 14 14 14 14 13 13 12 12 12 12 12 12 13 14 15 15 16 16 17 17 17 18 18 18 19 19 19 19 20 20 20 20
21 20 19 18 17 17 16 16 15 14 13 11 10 9 7 6 7 9 11 12 12 12 12 12 12 12 12 12 12 12 11 11 12 12 13 14 15 15 15 15 14 14 14 13 13 13 13 13 14 15 16 16 17 17 17 18 18 18 18 19 19 19 19 20 20 20 20 20 21
21 20 18 17 17 16 15 14 13 11 10 8 6 5 5 7 9 11 13 14 14 14 14 13 13 13 13 13 13 13 12 13 13 14 15 16 16 16 16 15 15 15 15 14 14 14 15 15 16 17 17 17 18 18 18 18 18 18 19 19 19 20 20 20 20 21 21 21 21
20 19 18 17 16 15 13 11 8 6 5 4 4 6 8 10 12 13 15 16 16 16 15 14 14 14 14 13 13 13 13 14 15 16 17 17 17 16 16 16 16 15 15 15 15 16 16 17 17 18 18 18 18 18 18 18 18 18 19 19 20 20 20 21 21 21 21 22 22
19 18 17 16 14 11 8 6 4 3 3 5 8 10 12 13 14 15 16 16 16 15 14 13 13 12 12 12 12 13 14 15 16 17 17 17 17 17 16 16 16 15 15 16 16 16 17 17 18 18 18 18 18 18 18 18 18 18 18 19 20 20 21 21 21 22 22 22 22
17 16 15 13 10 7 5 4 5 6 8 10 12 13 14 15 15 15 15 15 14 13 12 12 11 11 11 12 12 14 15 16 17 17 17 17 17 16 16 15 15 15 16 16 17 17 17 17 17 18 18 18 18 18 18 17 17 17 18 18 19 20 21 22 22 22 23 23 24
14 14 13 10 7 6 6 7 9 10 11 12 13 14 14 14 14 13 13 12 12 11 11 11 12 12 12 13 14 15 16 16 16 16 16 16 16 16 15 15 15 16 17 17 17 18 18 18 18 17 17 17 17 17 17 17 17 17 17 18 19 20 21 22 23 24 24 25 25
11 10 9 7 7 7 8 9 10 11 11 12 13 13 13 12 12 12 12 12 12 12 12 13 13 14 14 15 15 15 15 15 15 15 15 15 15 15 15 16 17 17 17 18 18 18 18 18 18 17 17 16 16 16 16 16 16 17 17 18 19 20 21 22 23 25 26 26 27
9 7 6 6 7 7 8 9 9 10 10 11 11 11 11 11 12 12 13 14 14 14 15 15 16 16 16 16 15 15 14 14 14 14 15 15 15 16 17 17 18 18 18 18 18 18 18 18 18 17 16 15 15 15 15 16 16 17 18 19 20 21 22 23 24 25 26 26 27
9 8 7 8 10 11 11 11 11 12 12 12 13 13 14 14 15 16 17 17 18 18 18 17 17 16 16 15 14 14 14 14 15 15 16 17 17 18 18 18 18 18 19 19 19 18 18 17 17 16 15 14 14 15 15 16 17 18 19 20 21 22 23 24 25 25 25 26 26
12 12 12 13 14 15 16 16 17 17 17 18 18 18 19 19 19 19 19 19 19 19 18 18 17 16 15 15 15 15 15 15 16 17 18 18 19 19 19 19 19 19 19 19 18 18 17 17 16 15 14 14 14 15 16 17 18 19 21 22 23 23 24 24 25 25 25 25 25
16 16 16 17 18 19 19 20 21 21 22 22 22 22 22 21 21 20 19 19 18 18 18 17 17 16 16 16 16 16 17 18 18 19 19 19 19 19 19 19 19 19 18 18 17 17 16 15 15 14 14 15 15 16 17 18 20 21 22 23 24 24 24 24 24 24 24 24 23
17 17 17 18 19 20 20 21 22 22 22 22 22 22 21 20 20 19 18 17 17 17 17 17 17 17 17 17 18 18 19 19 19 19 19 18 18 18 19 18 18 18 17 17 16 16 15 15 15 15 15 16 16 17 18 20 21 22 23 23 24 24 24 24 23 23 23 22 22
16 17 17 17 18 18 19 20 20 21 21 20 20 19 19 18 18 17 16 16 15 15 16 16 17 17 18 19 19 19 19 19 18 18 18 17 17 17 18 17 17 17 16 16 15 15 15 15 16 16 17 17 17 19 20 21 22 23 23 23 23 23 23 22 22 22 22 21 21
15 15 15 15 16 16 17 17 17 18 18 18 17 17 16 16 15 15 15 15 14 15 15 15 16 17 17 18 18 18 18 18 17 17 17 16 16 17 17 16 16 16 15 15 15 15 16 16 17 17 17 18 19 20 21 22 22 23 23 23 23 23 22 22 21 21 21 21 21
13 13 13 13 13 14 14 14 15 15 15 15 14 14 13 13 13 13 13 13 14 14 14 15 15 16 17 17 17 17 17 17 17 16 16 16 16 16 16 16 16 15 15 15 15 16 16 17 17 18 18 18 19 20 21 21 22 22 23 23 23 23 22 21 21 20 20 20 21
11 11 11 12 12 12 13 13 13 13 13 12 12 12 12 11 11 12 12 13 14 14 15 15 16 16 17 17 17 17 17 16 16 16 16 16 15 16 16 16 16 15 15 15 15 16 17 18 18 18 18 19 19 20 21 21 22 22 23 23 22 22 21 20 20 20 20 20 20
10 11 11 12 12 12 12 12 12 12 12 12 12 12 12 12 12 12 13 14 15 15 16 17 17 17 17 17 17 17 17 16 16 16 16 16 16 16 16 16 16 16 15 15 16 17 18 18 18 18 18 19 20 20 21 22 22 22 22 22 22 21 20 20 20 20 20 19 19
10 11 11 11 11 11 11 11 12 12 12 13 13 13 13 13 14 14 14 15 16 17 17 18 18 18 18 18 18 17 17 16 16 16 16 16 16 16 16 16 17 17 17 17 18 18 19 19 19 18 18 19 20 21 21 22 22 22 22 22 21 21 20 20 20 19 20 20 20
10 10 10 10 10 11 11 12 12 13 13 14 14 14 15 15 16 16 16 17 17 18 18 19 19 19 18 18 18 17 17 16 16 16 16 16 16 16 16 16 17 18 19 19 20 20 20 20 19 18 18 19 20 21 21 22 22 22 22 21 21 21 20 20 20 20 21 22 22
9 10 10 10 10 11 11 12 13 13 14 14 15 15 16 17 17 17 18 18 18 18 19 19 19 18 18 17 17 17 17 17 16 16 16 16 16 16 16 17 18 20 21 21 21 21 20 20 19 18 18 19 20 21 21 21 21 21 21 21 21 21 21 21 21 21 22 23 23
10 10 10 10 11 11 12 13 13 14 14 15 15 16 16 17 18 18 18 19 19 18 18 18 18 18 17 17 17 17 17 18 17 17 16 16 16 16 17 18 20 21 22 23 22 21 20 19 19 18 18 19 20 20 21 21 20 20 20 21 21 21 21 22 22 22 21 21 21
Wind_Direction
345 344 343 341 339 336 333 330 329 328 328 328 329 329 329 329 329 330 331 333 337 344 355 12 30 48 63 73 78 83 86 88 89 89 88 87 83 82 79 73 67 57 45 33 27 22 16 11 6 3 2 0 360 1 1 359 354 346 339 338 341 348 4 31 41 35 16 359 343
342 342 341 340 339 337 335 332 330 328 327 327 327 327 327 327 328 329 332 336 344 357 24 56 71 81 86 86 84 83 81 79 79 77 74 69 65 59 50 35 24 15 9 4 3 1 358 354 353 356 1 6 12 18 21 19 13 8 6 10 15 20 21 16 9 0 350 339 331
341 342 342 341 340 338 335 332 329 326 325 324 325 325 325 326 328 332 338 348 3 36 72 86 89 88 86 81 78 73 68 65 62 59 53 44 34 23 13 3 355 352 351 351 350 348 348 350 354 3 13 23 31 37 40 39 38 37 34 28 22 14 4 353 347 339 331 323 319
343 343 343 341 339 336 332 328 325 323 322 322 322 322 323 325 333 344 0 21 54 79 89 89 87 82 74 66 63 57 51 45 38 29 20 12 7 1 356 350 348 348 350 350 352 355 359 4 10 18 26 33 39 42 44 43 40 35 30 21 10 357 345 336 332 326 319 314 312
345 343 341 338 335 331 327 323 321 320 320 320 320 321 324 331 348 10 32 55 75 82 81 77 73 68 58 47 42 37 29 20 13 9 5 4 2 359 355 353 356 0 3 6 11 14 18 20 24 27 30 30 31 30 27 20 12 3 353 344 334 324 316 311 308 305 302 300 299
343 340 337 333 329 325 322 319 318 318 318 319 321 326 336 351 8 15 25 43 61 71 70 66 61 54 43 33 25 19 15 11 8 6 6 6 6 5 6 6 7 10 13 17 19 22 24 25 25 25 23 19 13 6 358 348 335 324 315 306 301 298 293 287 285 283 281 280 279
338 335 331 326 323 320 317 316 316 317 319 322 329 343 359 4 0 0 9 35 71 82 79 66 51 36 25 18 14 13 11 9 9 11 15 19 20 21 21 20 20 21 22 23 23 24 24 24 21 17 11 1 349 339 330 318 304 294 289 284 285 286 282 277 276 274 271 270 270
333 329 325 321 317 315 313 313 315 317 321 329 338 347 347 338 335 338 71 95 95 91 79 52 28 19 14 10 9 9 9 11 14 19 23 28 31 33 34 34 34 32 30 27 24 22 18 14 8 1 350 338 327 320 314 306 296 288 285 285 287 287 284 281 278 275 272 270 270
328 324 320 316 313 311 310 311 315 319 322 325 326 324 316 301 260 140 116 97 83 63 38 19 11 7 6 4 4 5 8 13 18 25 31 37 41 42 42 40 36 32 26 21 15 8 1 354 347 340 332 324 316 313 311 306 296 290 287 287 287 287 285 283 281 278 277 276 277
322 318 314 311 308 307 308 310 314 316 314 310 306 296 268 209 163 135 109 69 31 13 8 5 1 359 358 357 357 359 4 8 12 18 27 37 41 41 39 35 28 22 14 6 355 344 334 327 321 317 315 312 309 307 305 301 294 289 287 287 286 285 284 283 284 285 286 287 289
317 313 311 308 307 307 307 307 308 307 301 294 283 260 223 192 173 163 79 0 2 3 3 359 356 353 350 348 348 349 350 347 347 353 6 23 31 31 24 16 6 357 348 338 326 317 310 307 306 306 306 306 306 305 305 302 298 295 293 294 293 293 293 294 296 297 297 297 298
313 310 310 312 311 310 306 303 300 295 288 277 261 244 226 212 211 227 293 339 355 359 357 353 350 346 341 338 338 337 333 328 331 348 9 16 10 359 347 338 331 327 324 320 316 312 309 308 308 308 308 309 310 310 310 310 307 304 303 304 304 304 304 304 305 305 304 303 301
312 310 312 317 315 311 304 295 287 281 273 262 251 245 238 230 232 246 288 333 349 353 351 348 344 339 333 330 332 334 337 344 354 359 354 340 328 321 320 319 320 322 323 324 323 320 318 316 314 312 312 313 315 316 316 315 313 312 311 311 310 308 307 308 308 307 305 303 301
313 313 315 317 314 307 298 284 274 265 258 251 248 248 246 240 244 257 292 327 342 346 345 342 338 334 330 327 331 337 343 343 335 324 314 310 311 314 317 321 325 330 333 334 334 331 327 324 321 319 318 319 319 320 319 318 317 315 315 313 311 309 309 308 308 306 304 301 299
314 315 314 312 307 298 287 273 261 254 250 247 247 249 250 247 252 268 296 323 336 339 338 335 332 328 326 323 320 317 314 311 307 305 306 309 314 319 323 328 333 335 336 336 334 332 329 327 325 322 320 319 318 318 317 316 316 315 313 312 310 309 308 307 305 303 301 299 297
314 312 309 304 297 288 275 263 254 250 248 248 249 250 251 252 257 269 291 315 327 330 330 328 325 320 316 313 309 306 304 304 305 306 308 312 316 320 326 330 333 334 334 331 329 326 324 322 319 317 315 314 313 313 314 313 312 312 311 310 308 307 305 304 303 301 299 297 295
310 307 302 296 289 278 267 258 253 251 251 251 250 249 249 253 258 266 284 308 319 323 322 321 317 311 305 302 301 302 303 304 305 306 308 311 314 319 324 328 329 330 328 325 322 319 317 315 312 311 310 310 310 311 311 311 311 310 308 307 306 304 303 302 301 299 297 296 294
306 302 296 290 282 274 265 259 256 255 254 253 252 250 251 254 256 263 282 305 314 316 315 312 307 300 295 294 296 299 302 303 304 305 306 308 313 318 322 325 325 324 322 319 317 314 311 309 308 307 308 308 310 311 311 310 309 308 307 305 304 303 301 300 299 298 296 295 294
305 299 292 286 282 276 270 265 262 260 258 255 253 252 253 254 256 267 288 304 310 310 307 302 296 290 287 290 295 299 302 302 302 303 305 309 314 318 321 323 323 321 319 316 314 310 308 307 307 308 309 310 311 311 311 310 309 307 306 304 303 301 300 299 298 297 295 294 293
306 299 291 286 286 284 279 275 270 265 260 254 252 251 251 253 263 282 299 307 308 304 299 293 288 285 285 289 296 300 303 303 303 304 307 312 317 321 323 324 323 321 319 316 313 311 309 310 310 312 313 313 313 312 311 309 308 307 305 303 302 300 299 298 297 296 295 294 293
308 302 296 291 288 285 282 279 273 267 259 253 249 248 252 263 283 298 305 307 305 299 292 288 284 283 285 291 298 304 306 307 307 309 312 317 321 323 324 324 323 321 319 317 315 313 313 313 313 314 314 314 313 312 310 309 307 306 304 303 301 300 299 298 297 296 294 293 292
310 306 299 292 286 282 279 276 271 265 257 250 250 259 277 290 296 301 303 303 300 296 292 288 285 285 288 294 301 306 309 311 311 314 317 320 323 323 323 322 321 320 319 317 317 316 315 315 315 314 314 313 312 311 310 308 307 305 304 302 301 300 299 297 296 295 294 293 292
311 306 299 291 284 281 278 274 268 260 256 266 288 298 300 299 297 297 298 298 298 297 295 293 291 291 294 299 305 310 312 314 315 317 319 321 322 321 320 319 319 318 318 317 317 317 317 316 315 314 314 313 312 311 309 308 306 305 304 302 301 299 298 296 295 294 293 292 292
311 306 300 292 284 279 274 267 259 263 285 300 304 304 302 299 298 297 298 298 299 300 300 300 299 300 302 306 310 313 316 318 319 320 321 321 320 319 317 316 316 316 316 317 318 319 319 318 317 316 314 313 312 310 309 307 306 304 302 301 299 298 296 295 294 293 293 293 293
312 308 303 296 286 273 263 260 271 284 293 297 301 302 303 302 302 302 302 303 304 305 307 308 308 309 310 312 315 317 319 322 323 323 322 319 317 315 315 314 315 316 318 319 320 320 319 319 318 316 315 313 312 310 308 307 305 303 301 299 298 296 295 294 294 294 294 294 295
318 313 307 298 286 276 276 285 294 300 303 305 306 307 308 309 309 310 310 311 312 314 314 314 314 316 317 318 320 321 323 324 325 324 321 317 315 314 315 316 318 320 320 320 320 319 319 318 317 316 315 313 311 310 308 306 303 301 299 297 296 296 296 296 297 297 297 297 298
324 319 311 304 298 299 304 311 316 318 318 316 316 316 317 318 319 321 323 324 325 324 323 322 322 323 324 325 326 327 328 327 325 323 320 319 318 319 320 320 321 321 321 321 320 320 319 318 318 316 315 313 311 309 306 304 302 300 298 298 298 298 299 300 300 301 301 301 301
332 328 325 329 337 340 341 340 340 338 336 335 335 336 338 339 341 342 342 342 340 339 337 335 333 333 332 332 333 333 332 330 326 323 322 322 322 322 322 322 321 322 321 321 321 321 320 319 318 317 316 314 311 307 305 303 302 301 301 301 301 302 302 302 302 302 302 302 302
352 349 351 1 8 9 7 6 5 3 2 1 1 0 360 359 359 358 356 354 353 351 349 345 342 339 338 338 337 335 333 330 327 326 325 324 323 322 322 321 322 322 322 322 322 321 320 320 319 318 316 313 309 306 305 305 305 305 305 305 304 304 304 303 303 302 302 301 301
21 20 20 20 20 18 16 15 13 11 9 7 5 4 3 2 1 359 357 354 352 350 348 344 341 339 338 337 335 332 330 328 326 325 324 323 322 321 321 321 322 323 323 322 321 321 320 319 318 317 315 312 310 309 308 308 308 308 307 306 305 305 304 303 303 302 301 301 301
33 32 30 27 23 19 15 12 9 6 4 3 2 1 0 359 358 356 353 349 344 341 337 334 333 332 332 330 329 328 326 325 324 323 322 321 320 320 320 321 322 323 323 322 321 321 320 319 317 315 314 312 312 312 312 311 310 308 307 306 305 304 304 303 303 302 303 303 303
30 28 25 22 18 14 10 7 4 1 360 359 358 358 357 356 354 351 348 343 338 333 329 327 327 327 327 326 326 325 324 323 322 321 320 319 319 319 320 322 323 323 323 323 322 321 320 318 316 315 315 315 315 314 313 311 310 308 306 305 304 304 304 304 304 304 304 305 305
22 20 18 16 13 10 7 5 1 358 355 354 354 353 352 350 349 346 342 338 334 330 327 326 326 327 327 327 327 326 324 323 321 320 319 319 319 320 321 322 324 324 325 324 323 321 319 318 316 317 317 317 316 314 313 311 309 308 306 305 305 305 306 306 306 306 306 305 305
14 13 12 11 9 7 5 2 358 354 350 348 348 347 346 345 343 341 338 336 333 331 329 329 329 329 329 328 327 326 324 322 321 320 320 320 320 321 323 324 326 326 326 325 323 321 319 318 318 318 318 317 316 314 312 311 309 308 308 307 307 308 308 308 307 307 306 305 303
10 9 8 6 5 2 360 356 351 347 343 342 342 342 342 341 339 338 337 336 335 334 334 334 334 333 332 331 329 327 325 323 322 322 322 322 322 323 324 326 327 327 327 325 323 321 320 319 319 319 318 316 315 313 312 311 310 310 309 310 310 310 310 310 309 307 304 303 301
6 3 0 357 355 352 349 345 342 340 340 342 343 344 343 343 342 341 340 339 339 339 339 338 338 336 335 332 330 328 327 325 324 324 324 325 325 325 325 325 326 327 326 325 323 322 321 320 320 319 317 315 314 313 312 312 311 311 311 311 311 311 310 309 307 305 303 301 300
358 353 349 346 344 343 342 341 342 344 347 350 351 350 349 347 346 345 343 342 341 340 339 338 337 336 334 332 330 329 327 327 326 327 327 327 327 327 326 325 325 326 326 325 324 322 321 320 319 317 316 315 313 313 313 313 313 313 312 312 311 311 310 308 306 304 302 300 298
348 344 342 341 341 342 344 347 349 351 352 352 352 350 348 346 345 344 342 341 340 338 336 335 334 333 332 330 329 328 328 328 329 329 329 329 329 328 327 325 325 326 326 326 325 323 321 319 318 316 314 313 313 313 314 314 314 314 313 313 312 311 309 308 306 303 301 299 297
341 338 338 339 341 343 346 348 350 350 349 348 347 345 343 342 341 340 340 339 338 336 334 333 332 331 330 329 329 328 329 330 331 331 331 330 330 329 328 327 327 327 327 327 326 324 321 319 317 316 314 312 313 314 315 315 315 315 314 314 313 311 309 307 305 302 301 300 299
333 332 333 336 338 341 343 345 346 346 345 344 343 341 340 339 338 337 336 336 335 334 332 331 330 330 330 330 330 330 330 331 332 332 331 331 330 330 330 329 329 328 328 328 327 324 322 320 319 317 315 314 314 315 316 317 317 316 316 315 313 311 309 307 305 303 302 302 302
325 325 327 330 334 337 340 341 341 340 340 339 339 338 337 336 336 336 335 335 333 332 331 330 330 330 331 331 332 331 331 332 332 332 331 330 330 330 331 331 330 329 329 329 328 326 323 321 321 320 317 316 316 316 318 319 319 317 316 314 312 309 307 306 305 304 303 302 302
Height
808 807 806 804 803 802 800 799 798 796 794 792 791 790 789 788 787 786 785 784 784 783 782 781 781 780 780 779 778 778 777 777 776 776 776 776 777 777 777 777 777 778 778 778 778 778 779 779 780 780 781 781 782 782 783 783 783 784 784 784 785 785 785 786 786 787 787 787 788
807 805 804 803 802 800 800 798 797 795 794 792 790 789 788 787 787 786 785 784 784 783 783 782 782 781 780 780 779 779 778 778 778 778 778 778 778 778 778 778 778 779 779 779 779 779 779 779 780 780 781 781 782 782 782 783 783 783 784 784 785 785 785 785 786 786 786 786 787
805 804 803 801 800 800 799 797 796 795 793 791 790 789 788 787 786 785 785 784 784 784 783 783 782 782 781 780 780 780 779 779 779 779 779 779 779 779 779 779 779 779 779 779 779 779 779 779 779 780 780 781 781 782 782 783 783 783 784 784 785 785 785 785 785 785 785 786 786
804 802 801 800 799 799 798 797 795 794 792 791 789 788 788 787 786 785 785 785 785 784 784 783 783 782 782 781 780 780 780 780 780 779 779 779 779 779 779 779 779 779 779 779 779 779 778 778 779 779 780 781 781 782 782 783 783 783 784 784 785 785 785 785 785 785 785 785 785
802 801 800 800 799 798 797 796 795 793 791 790 789 788 787 787 786 786 785 785 785 785 784 784 783 783 782 782 781 781 780 780 780 779 779 779 779 779 779 779 779 779 779 779 778 778 778 778 778 779 780 780 781 781 782 782 783 783 783 784 784 784 784 784 784 784 784 784 784
801 800 800 799 798 797 796 795 793 792 790 789 788 788 787 786 786 786 786 785 785 785 785 784 784 784 783 782 781 781 780 780 779 779 779 779 779 779 779 778 778 778 779 779 778 778 778 778 778 779 779 780 780 780 781 781 781 782 782 782 782 782 782 782 782 782 783 783 783
800 800 799 797 796 795 795 793 792 791 790 789 788 787 787 786 786 786 786 785 785 785 785 785 784 784 783 782 781 781 780 780 780 779 779 778 778 778 778 778 778 778 778 779 779 778 778 778 778 778 779 779 779 780 780 780 780 780 780 780 780 780 780 780 780 780 780 780 781
799 798 797 796 795 795 793 792 791 790 789 788 788 787 787 786 786 786 785 785 785 785 785 785 784 783 783 782 781 781 780 780 780 779 778 778 778 778 778 778 778 778 778 778 778 778 778 778 778 778 778 778 779 779 779 779 779 779 779 779 779 779 779 779 779 779 779 779 780
798 797 796 795 794 793 792 791 790 789 788 788 787 787 787 786 786 786 786 785 785 785 785 784 784 783 783 782 782 781 780 780 779 779 778 778 777 777 777 777 777 777 778 778 778 778 778 777 777 777 778 778 778 778 778 778 778 778 778 778 778 778 778 778 779 779 779 779 779
797 796 795 794 793 792 791 790 789 789 788 787 787 787 786 786 786 786 786 786 785 785 785 784 784 783 783 782 781 781 780 780 779 779 778 777 777 777 776 776 776 777 777 777 777 777 777 777 777 777 777 777 777 777 777 777 777 777 777 777 777 777 777 778 778 778 778 778 778
796 795 794 793 792 790 790 789 788 788 787 787 786 786 786 786 786 786 785 785 785 785 785 784 784 783 782 782 781 780 780 780 779 778 777 777 776 776 776 776 776 776 776 776 776 776 776 776 776 776 776 776 776 776 776 776 776 776 776 776 776 776 776 777 777 777 776 776 776
795 793 792 791 790 789 788 788 787 787 787 786 786 786 786 785 785 785 785 785 785 785 784 784 783 783 782 781 780 780 780 779 779 778 777 777 776 776 776 775 775 775 775 775 776 776 775 775 775 775 775 775 775 775 775 775 775 775 775 775 775 775 775 775 775 775 775 775 774
793 791 790 790 789 788 787 787 786 786 786 786 785 785 785 785 785 785 785 784 784 784 784 784 783 783 782 781 781 780 779 779 778 778 777 777 776 776 776 775 775 775 775 775 775 775 775 775 775 775 775 775 775 775 775 774 774 774 774 774 774 774 774 774 774 774 773 773 773
791 790 788 787 787 786 786 785 785 785 785 785 785 785 785 784 784 784 784 784 784 784 784 783 783 782 782 781 781 780 780 779 778 778 777 777 776 776 776 775 775 775 775 774 774 774 774 774 774 774 773 773 773 773 773 773 773 773 773 773 772 772 772 772 772 772 772 771 771
789 788 786 785 785 784 784 784 784 784 784 784 784 784 783 783 783 783 783 783 783 783 783 783 782 782 782 781 781 780 780 779 778 778 777 777 776 776 775 775 775 774 774 773 773 773 773 773 773 773 772 772 772 772 772 772 772 772 771 771 771 771 771 771 770 770 770 770 769
787 786 785 784 783 782 782 782 782 782 782 782 782 782 782 782 782 782 782 782 782 782 782 782 782 781 781 781 780 780 780 779 778 778 777 777 776 776 775 775 774 773 773 773 772 772 772 772 772 772 771 771 771 771 771 771 770 770 770 770 770 770 769 769 769 769 768 768 767
786 785 784 783 782 781 781 780 780 780 780 780 780 780 780 780 780 780 780 781 781 781 781 781 781 781 781 780 780 780 779 779 778 777 777 776 776 775 775 774 773 773 772 772 772 771 771 771 771 771 770 770 770 770 770 770 769 769 769 769 768 768 768 768 767 767 766 766 765
785 784 783 782 781 780 780 779 779 779 779 779 779 779 779 779 779 779 780 780 780 780 780 780 780 780 780 780 779 779 778 778 777 777 776 776 775 775 774 773 773 772 772 771 771 770 770 770 770 770 769 769 769 769 768 768 768 768 767 767 767 766 766 766 765 765 765 764 764
785 784 782 781 780 779 779 778 778 777 777 777 778 778 778 778 779 779 779 779 779 779 779 779 779 779 779 779 778 778 777 777 777 776 776 775 775 774 774 773 772 771 771 770 770 770 769 769 769 768 768 768 768 767 767 767 766 766 766 765 765 765 765 764 764 764 763 762 762
785 783 782 781 780 779 778 777 777 776 776 777 777 777 777 778 778 779 779 779 779 779 779 778 778 778 778 778 777 777 776 776 776 775 775 775 774 773 773 772 771 771 770 770 769 769 768 768 768 767 767 766 766 766 765 765 765 765 764 764 764 763 763 762 762 762 761 760 760
785 783 782 781 780 779 778 778 777 777 777 777 777 777 777 777 778 778 779 778 778 778 778 777 777 777 777 776 776 776 775 775 775 775 774 774 773 772 772 771 770 770 769 769 768 768 767 767 766 766 765 765 765 765 764 764 763 763 763 762 762 761 761 761 760 760 759 759 758
784 783 782 781 781 780 779 779 778 778 778 777 777 777 777 777 778 778 778 778 778 778 777 777 776 776 776 775 775 775 775 774 774 774 773 773 772 771 771 770 769 769 768 768 767 767 766 766 765 765 764 764 763 763 763 762 762 761 761 760 760 760 759 759 758 758 757 757 756
784 783 783 782 781 780 780 780 780 779 779 779 778 778 778 777 777 777 777 777 777 777 776 776 775 775 775 774 774 774 774 773 773 773 772 771 771 770 770 769 769 768 767 767 766 766 765 765 764 764 763 763 762 762 761 761 760 760 759 759 758 758 757 757 756 756 755 755 755
784 783 782 782 781 781 781 780 780 780 780 780 779 778 778 777 777 776 776 776 776 775 775 775 774 774 774 773 773 773 773 772 772 771 771 770 770 769 769 768 768 767 767 766 765 765 764 763 763 762 762 761 761 760 760 760 759 758 758 757 756 756 755 755 755 754 754 753 753
783 782 782 781 781 781 781 781 781 780 780 780 779 779 778 777 776 775 775 775 775 775 774 774 774 773 773 772 772 772 772 771 771 770 770 770 769 769 768 768 767 766 766 765 765 764 763 762 762 761 760 760 759 759 759 758 758 757 756 756 755 754 754 753 753 752 752 751 751
783 782 782 782 781 781 781 781 781 781 780 780 779 779 778 777 776 775 775 774 774 774 774 773 773 772 772 772 771 771 770 770 770 769 769 769 768 768 767 767 766 765 765 764 764 763 762 761 761 760 759 759 758 758 757 757 756 756 755 754 754 753 752 751 750 750 750 749 749
783 783 783 783 782 782 782 782 781 781 780 780 779 778 778 777 776 775 774 774 773 773 773 772 772 772 771 771 770 770 770 769 769 768 768 768 768 767 766 766 765 765 764 763 762 761 761 760 760 759 758 758 757 756 756 755 755 754 754 753 752 752 751 750 749 748 748 747 747
783 783 783 784 783 783 782 782 781 780 780 779 779 778 777 776 775 775 774 773 773 772 772 772 771 771 770 770 770 769 768 768 768 768 768 768 767 766 765 765 764 763 763 762 761 760 760 759 758 758 757 756 756 755 755 754 754 753 752 752 751 750 749 748 747 746 746 745 744
783 783 783 783 783 782 782 781 781 780 780 779 778 777 776 775 775 774 773 773 772 772 771 771 771 770 770 769 769 768 768 768 768 768 767 767 766 765 765 764 763 762 761 760 760 759 758 758 757 756 756 755 755 754 754 753 752 751 751 750 750 749 748 747 746 745 744 743 742
784 783 783 783 783 783 783 782 782 781 780 779 778 777 776 776 775 774 774 773 772 772 771 771 770 770 769 769 768 768 768 767 767 767 767 766 765 765 764 763 762 761 760 759 759 758 757 756 756 755 755 754 754 753 752 752 751 750 749 749 748 747 746 745 744 743 742 741 740
784 784 783 784 784 783 783 783 782 781 780 779 778 777 776 776 775 775 774 773 773 772 771 771 770 770 769 768 768 768 767 767 767 766 766 765 764 763 762 762 761 760 759 758 757 757 756 755 755 754 754 753 752 752 751 750 750 749 748 747 746 745 744 743 742 741 740 740 739
784 784 784 783 783 783 783 782 782 781 780 779 778 777 776 776 775 774 774 773 772 771 771 770 770 769 768 768 767 767 767 766 766 765 765 764 763 762 761 760 760 759 758 757 756 755 755 754 754 753 753 752 751 750 750 749 748 747 746 745 744 744 743 742 741 740 739 738 738
784 784 784 783 783 782 782 782 781 780 780 779 778 777 776 775 775 774 773 772 771 771 770 770 769 768 768 767 767 766 766 765 765 764 764 763 762 761 760 759 759 758 757 756 755 755 754 753 753 752 751 750 750 749 748 747 746 745 745 744 743 742 741 740 739 738 738 737 736
784 784 783 783 782 781 781 781 780 780 779 778 778 777 776 775 774 773 772 771 771 770 770 769 769 768 768 767 766 766 765 765 764 763 762 761 760 760 759 758 757 757 756 755 754 754 753 752 751 751 750 749 749 748 747 746 745 744 743 742 741 740 739 739 738 737 736 735 735
783 783 782 781 781 780 780 780 779 779 778 778 777 776 775 775 774 773 772 771 770 770 769 769 768 768 767 766 766 765 764 763 763 762 761 760 759 758 758 757 756 755 755 754 753 752 752 751 750 750 749 748 747 746 745 744 743 742 741 740 739 738 737 737 736 735 735 734 733
783 782 781 781 780 780 779 779 778 778 777 777 776 775 775 774 773 772 771 771 770 769 769 768 767 767 766 765 765 764 763 762 761 760 760 759 758 757 756 756 755 755 754 753 752 751 750 750 749 748 747 746 745 745 744 743 741 740 739 738 737 736 736 735 735 734 733 732 732
782 782 781 781 780 780 779 779 778 777 777 776 775 775 774 773 773 772 771 770 769 769 768 767 766 766 765 764 764 763 762 761 760 760 759 758 757 756 755 755 754 754 753 752 751 750 749 749 748 747 746 745 744 743 742 741 740 739 738 737 736 735 735 734 733 732 732 731 730
782 782 781 781 780 780 779 779 778 777 776 776 775 775 774 773 772 771 770 770 769 768 767 766 765 765 764 763 762 762 761 760 760 759 758 757 756 755 754 754 753 752 752 751 750 749 748 747 746 745 745 744 743 742 740 739 738 737 736 735 734 734 733 732 732 731 730 729 729
782 782 781 780 780 779 779 778 777 777 776 775 775 774 773 772 771 770 770 769 768 767 766 765 764 764 763 762 761 761 760 760 759 758 757 756 755 755 754 753 752 751 750 750 749 748 747 746 745 744 744 743 741 740 739 738 737 736 735 734 733 732 731 731 730 729 728 727 726
782 781 781 780 780 779 778 777 777 776 775 775 774 773 772 771 770 770 769 768 767 766 765 764 763 763 762 761 760 760 759 759 758 757 756 755 755 754 753 752 751 750 749 749 748 747 746 745 744 743 742 741 740 739 738 737 736 735 734 733 732 731 730 729 728 727 726 725 724
781 781 780 780 779 778 778 777 776 775 775 774 773 772 771 770 770 769 768 767 766 765 764 763 763 762 761 760 760 759 758 758 757 756 755 755 754 753 752 751 750 749 748 747 746 745 744 743 742 742 741 740 739 738 737 736 735 733 732 731 731 730 728 727 726 725 724 723 722